Hourly Weather Godzieszow

Today, 28 January, Thursday

Time Temperature Precipitation Wind Pressure Humidity
00:00 -4°C° 0 mm 3 mps 736 mmHg 86%
01:00 -4°C° 0 mm 3 mps 735 mmHg 83%
02:00 -4°C° 0.1 mm 4 mps 735 mmHg 85%
03:00 -4°C° 0.1 mm 4 mps 735 mmHg 87%
04:00 -4°C° 0.1 mm 4 mps 734 mmHg 89%
05:00 -3°C° 0.2 mm 4 mps 734 mmHg 91%
06:00 -4°C° 0.2 mm 5 mps 733 mmHg 93%
07:00 -4°C° 0.2 mm 5 mps 733 mmHg 95%
08:00 -2°C° 0.3 mm 5 mps 732 mmHg 95%
09:00 -1°C° 0.3 mm 5 mps 732 mmHg 96%
10:00 -1°C° 0.3 mm 4 mps 732 mmHg 96%
11:00 -1°C° 0.2 mm 4 mps 731 mmHg 96%
12:00 0°C° 0.2 mm 3 mps 731 mmHg 96%
13:00 +1°C° 0.2 mm 3 mps 730 mmHg 96%
14:00 +2°C° 0.3 mm 2 mps 730 mmHg 97%
15:00 +1°C° 0.3 mm 2 mps 729 mmHg 98%
16:00 +2°C° 0.3 mm 1 mps 729 mmHg 99%
17:00 +2°C° 0.4 mm 1 mps 729 mmHg 98%
18:00 +2°C° 0.4 mm 1 mps 729 mmHg 98%
19:00 +1°C° 0.4 mm 2 mps 728 mmHg 98%
20:00 -1°C° 0.4 mm 2 mps 729 mmHg 96%
21:00 -1°C° 0.4 mm 2 mps 729 mmHg 95%
22:00 -2°C° 0.4 mm 2 mps 729 mmHg 93%
23:00 -3°C° 0 mm 2 mps 729 mmHg 93%

Tomorrow, 29 January, Friday

Time Temperature Precipitation Wind Pressure Humidity
00:00 -1°C° 0 mm 1 mps 730 mmHg 92%
01:00 -2°C° 0 mm 1 mps 730 mmHg 92%
02:00 -2°C° 0 mm 1 mps 730 mmHg 92%
03:00 -2°C° 0 mm 1 mps 730 mmHg 91%
04:00 -3°C° 0 mm 1 mps 730 mmHg 91%
05:00 -3°C° 0 mm 1 mps 730 mmHg 89%
06:00 -3°C° 0 mm 1 mps 729 mmHg 87%
07:00 -2°C° 0 mm 1 mps 729 mmHg 85%
08:00 -2°C° 0 mm 1 mps 728 mmHg 81%
09:00 -1°C° 0 mm 1 mps 728 mmHg 76%
10:00 0°C° 0 mm 1 mps 728 mmHg 71%
11:00 -1°C° 0.2 mm 2 mps 727 mmHg 73%
12:00 -1°C° 0.2 mm 2 mps 726 mmHg 75%
13:00 -1°C° 0.2 mm 3 mps 725 mmHg 77%
14:00 -1°C° 1.3 mm 3 mps 725 mmHg 84%
15:00 -1°C° 1.3 mm 3 mps 725 mmHg 91%
16:00 -2°C° 1.3 mm 3 mps 724 mmHg 97%
17:00 -2°C° 0.4 mm 2 mps 724 mmHg 97%
18:00 -1°C° 0.4 mm 2 mps 725 mmHg 97%
19:00 -1°C° 0.4 mm 2 mps 725 mmHg 97%
20:00 -1°C° 0.1 mm 2 mps 725 mmHg 97%
21:00 -1°C° 0.1 mm 2 mps 725 mmHg 97%
22:00 +1°C° 0.1 mm 2 mps 725 mmHg 97%
23:00 0°C° 0.4 mm 3 mps 725 mmHg 97%

Day after tomorrow, 30 January, Saturday

Time Temperature Precipitation Wind Pressure Humidity
00:00 0°C° 0.4 mm 3 mps 724 mmHg 97%
01:00 0°C° 0.4 mm 4 mps 724 mmHg 97%
02:00 0°C° 0.5 mm 4 mps 724 mmHg 97%
03:00 0°C° 0.5 mm 4 mps 724 mmHg 98%
04:00 0°C° 0.5 mm 5 mps 723 mmHg 98%
05:00 0°C° 0.9 mm 5 mps 723 mmHg 97%
06:00 -2°C° 0.9 mm 6 mps 723 mmHg 97%
07:00 -2°C° 0.9 mm 6 mps 723 mmHg 97%
08:00 -3°C° 0.2 mm 6 mps 724 mmHg 95%
09:00 -4°C° 0.2 mm 5 mps 725 mmHg 94%
10:00 -4°C° 0.2 mm 4 mps 726 mmHg 93%
11:00 -4°C° 0.2 mm 4 mps 726 mmHg 91%
12:00 -3°C° 0.2 mm 4 mps 727 mmHg 90%
13:00 -2°C° 0.2 mm 3 mps 727 mmHg 89%
14:00 -2°C° 0.1 mm 3 mps 728 mmHg 90%
15:00 -2°C° 0.1 mm 2 mps 728 mmHg 91%
16:00 -3°C° 0.1 mm 2 mps 728 mmHg 92%
17:00 -1°C° 0 mm 1 mps 728 mmHg 93%
18:00 -2°C° 0 mm 1 mps 729 mmHg 94%
19:00 -4°C° 0 mm 0 mps 729 mmHg 95%
20:00 -4°C° 0 mm 0 mps 729 mmHg 95%
21:00 -4°C° 0 mm 0 mps 729 mmHg 95%
22:00 -4°C° 0 mm 0 mps 729 mmHg 95%
23:00 -4°C° 0 mm 0 mps 729 mmHg 95%

31 January, Sunday

Time Temperature Precipitation Wind Pressure Humidity
00:00 -3°C° 0 mm 1 mps 730 mmHg 94%
01:00 -3°C° 0 mm 1 mps 730 mmHg 93%
02:00 -3°C° 0 mm 1 mps 729 mmHg 93%
03:00 -3°C° 0 mm 1 mps 729 mmHg 93%
04:00 -3°C° 0 mm 1 mps 729 mmHg 92%
05:00 -4°C° 0 mm 1 mps 729 mmHg 91%
06:00 -4°C° 0 mm 1 mps 730 mmHg 90%
07:00 -4°C° 0 mm 1 mps 730 mmHg 88%
08:00 -3°C° 0 mm 1 mps 730 mmHg 85%
09:00 -2°C° 0 mm 1 mps 730 mmHg 81%
10:00 -2°C° 0 mm 1 mps 730 mmHg 78%
11:00 -1°C° 0 mm 1 mps 730 mmHg 75%
12:00 0°C° 0 mm 1 mps 730 mmHg 73%
13:00 +1°C° 0 mm 1 mps 729 mmHg 70%
14:00 0°C° 0 mm 1 mps 729 mmHg 74%
15:00 0°C° 0 mm 1 mps 729 mmHg 78%
16:00 -1°C° 0 mm 1 mps 728 mmHg 82%
17:00 -1°C° 0 mm 1 mps 728 mmHg 84%
18:00 -2°C° 0 mm 1 mps 728 mmHg 85%
19:00 -2°C° 0 mm 1 mps 728 mmHg 87%
20:00 -2°C° 0 mm 1 mps 728 mmHg 85%
21:00 -2°C° 0 mm 1 mps 728 mmHg 83%
22:00 -2°C° 0 mm 1 mps 727 mmHg 82%
23:00 -2°C° 0 mm 1 mps 727 mmHg 82%

1 February, Monday

Time Temperature Precipitation Wind Pressure Humidity
00:00 -2°C° 0 mm 1 mps 727 mmHg 83%
01:00 -3°C° 0 mm 1 mps 726 mmHg 83%
02:00 -3°C° 0 mm 1 mps 726 mmHg 84%
03:00 -3°C° 0 mm 1 mps 726 mmHg 84%
04:00 -3°C° 0 mm 1 mps 725 mmHg 85%
05:00 -3°C° 0 mm 1 mps 726 mmHg 85%
06:00 -3°C° 0 mm 1 mps 726 mmHg 86%
07:00 -3°C° 0 mm 1 mps 726 mmHg 87%
08:00 -2°C° 0 mm 1 mps 726 mmHg 86%
09:00 -2°C° 0 mm 1 mps 727 mmHg 85%
10:00 -1°C° 0 mm 1 mps 727 mmHg 84%
11:00 -1°C° 0 mm 1 mps 727 mmHg 83%
12:00 0°C° 0 mm 1 mps 728 mmHg 82%
13:00 0°C° 0 mm 1 mps 728 mmHg 81%
14:00 0°C° 0 mm 1 mps 728 mmHg 83%
15:00 0°C° 0 mm 1 mps 729 mmHg 86%
16:00 -1°C° 0 mm 1 mps 729 mmHg 89%
17:00 -1°C° 0 mm 1 mps 730 mmHg 91%
18:00 -2°C° 0 mm 1 mps 731 mmHg 93%
19:00 -3°C° 0 mm 1 mps 732 mmHg 94%
20:00 -3°C° 0 mm 1 mps 732 mmHg 94%
21:00 -3°C° 0 mm 1 mps 733 mmHg 94%
22:00 -4°C° 0 mm 1 mps 734 mmHg 94%
23:00 -4°C° 0 mm 1 mps 734 mmHg 94%

2 February, Tuesday

Time Temperature Precipitation Wind Pressure Humidity
00:00 -4°C° 0 mm 1 mps 735 mmHg 94%
01:00 -4°C° 0 mm 1 mps 736 mmHg 94%
02:00 -6°C° 0 mm 1 mps 736 mmHg 93%
03:00 -7°C° 0 mm 2 mps 737 mmHg 92%
04:00 -7°C° 0 mm 2 mps 737 mmHg 92%
05:00 -7°C° 0 mm 2 mps 738 mmHg 90%
06:00 -6°C° 0 mm 1 mps 738 mmHg 88%
07:00 -6°C° 0 mm 1 mps 738 mmHg 86%
08:00 -4°C° 0 mm 1 mps 739 mmHg 81%
09:00 -3°C° 0 mm 1 mps 739 mmHg 76%
10:00 -2°C° 0 mm 1 mps 740 mmHg 72%
11:00 -1°C° 0 mm 1 mps 740 mmHg 68%
12:00 0°C° 0 mm 1 mps 739 mmHg 64%
13:00 +1°C° 0 mm 1 mps 739 mmHg 60%
14:00 +1°C° 0 mm 1 mps 739 mmHg 64%
15:00 -2°C° 0 mm 2 mps 738 mmHg 69%
16:00 -2°C° 0 mm 2 mps 738 mmHg 73%
17:00 -2°C° 0 mm 2 mps 737 mmHg 75%
18:00 -2°C° 0 mm 3 mps 737 mmHg 77%
19:00 -2°C° 0 mm 3 mps 736 mmHg 79%
20:00 -2°C° 0.2 mm 3 mps 735 mmHg 83%
21:00 -2°C° 0.2 mm 4 mps 735 mmHg 88%
22:00 -2°C° 0.2 mm 4 mps 734 mmHg 93%
23:00 -1°C° 1.4 mm 5 mps 733 mmHg 93%
Show more